This demonstration page uses our WeatherBlox Daily Observations layout. Learn more.

39.92423, -83.80882

Hourly Observations for May 12, 2016

Temp ( °F °C ) Dew Point ( °F °C ) Humidity (%) Winds ( mph kmh ) Pressure ( in mb ) Visibility ( mi km ) Precip ( " mm )
12:56 am 00:56 Partly Cloudy 66 18.8 62 16.6 87 87 ESE 7 11 30.04 1017 10 16.0934 0 0
1:56 am 01:56 Mostly Cloudy 66 18.8 62 16.6 87 87 SE 8 13 30.03 1017 10 16.0934 0 0
2:56 am 02:56 Clear 65 18.3 62 16.6 90 90 SSW 5 7 30.02 1017 10 16.0934 0 0
3:56 am 03:56 Mostly Clear 65 18.3 62 16.6 90 90 S 5 7 30.03 1017 10 16.0934 0 0
4:56 am 04:56 Mostly Clear 64 17.7 62 16.6 93 93 SSW 6 9 30.02 1017 10 16.0934 0 0
5:56 am 05:56 Clear 61 16.1 60 15.5 96 96 Calm 30 1016 9 14.48406 0 0
6:56 am 06:56 Sunny with Mist and Fog 58 14.4 58 14.4 100 100 SSE 3 6 30 1016 2.5 4.02335 0 0
7:06 am 07:06 Sunny 61 16 61 16 100 100 SSW 8 13 30.03 1017 7 11.26538 0 0
7:56 am 07:56 Sunny 64 17.7 61 16.1 90 90 S 8 13 30.03 1017 10 16.0934 0 0
8:56 am 08:56 Sunny 65 18.3 62 16.6 90 90 SSW 10 17 30.05 1018 10 16.0934 0 0
9:56 am 09:56 Sunny 68 20 61 16.1 78 78 SSW 9 15 30.06 1018 10 16.0934 0 0
10:56 am 10:56 Sunny 71 21.6 62 16.6 73 73 SSW 9 15 30.04 1017 10 16.0934 0 0
11:56 am 11:56 Mostly Sunny 73 22.7 62 16.6 69 69 S 7 11 30.01 1016 10 16.0934 0 0
12:56 pm 12:56 Mostly Sunny 77 25 63 17.2 62 62 SSW 10 17 30 1016 10 16.0934 0 0
1:56 pm 13:56 Mostly Cloudy 76 24.4 62 16.6 62 62 S 9 15 29.99 1016 10 16.0934 0 0
2:56 pm 14:56 Sunny 74 23.3 63 17.2 69 69 S 12 19 29.97 1015 10 16.0934 0 0
3:56 pm 15:56 Mostly Sunny 76 24.4 62 16.6 62 62 S 12 19 29.94 1014 10 16.0934 0 0
4:56 pm 16:56 Mostly Sunny 78 25.5 62 16.6 58 58 SSW 9 15 29.91 1013 10 16.0934 0 0
5:56 pm 17:56 Sunny 76 24.4 63 17.2 64 64 SSW 8 13 29.91 1013 10 16.0934 0 0
6:56 pm 18:56 Sunny 75 23.8 63 17.2 67 67 S 6 9 29.88 1012 10 16.0934 0 0
7:56 pm 19:56 Sunny 72 22.2 63 17.2 73 73 SW 10 17 29.89 1012 10 16.0934 0 0
8:56 pm 20:56 Mostly Clear 70 21.1 62 16.6 76 76 SW 10 17 29.9 1012 10 16.0934 0 0
9:22 pm 21:22 Cloudy with Light Rain 66 19 64 18 94 94 WSW 13 20 29.91 1013 7 11.26538 0 0.0254
9:31 pm 21:31 Cloudy with Rain 64 18 63 17 94 94 W 18 30 29.91 1013 4 6.43736 0.01 0.254
9:56 pm 21:56 Cloudy with Light Rain 63 17.2 62 16.6 96 96 W 9 15 29.92 1013 9 14.48406 0.03 0.762
10:43 pm 22:43 Mostly Cloudy with Rain 63 17 63 17 100 100 W 8 13 29.91 1013 2.5 4.02335 0.07 1.778
10:48 pm 22:48 Cloudy with Rain 63 17 63 17 100 100 W 8 13 29.91 1013 3 4.82802 0.08 2.032
10:56 pm 22:56 Cloudy with Light Rain 61 16.1 60 15.5 96 96 W 25 41 29.94 1014 5 8.0467 0.08 2.032
11:03 pm 23:03 Cloudy with Heavy Rain 57 14 55 13 94 94 W 17 28 29.94 1014 N/A 0.08 2.032
11:18 pm 23:18 Mostly Cloudy with Light Rain 55 13 55 13 100 100 WNW 12 19 29.94 1014 6 9.65604 0.09 2.286
11:32 pm 23:32 Mostly Cloudy with Light Rain 55 13 55 13 100 100 W 6 9 29.94 1014 8 12.87472 0.1 2.54
11:56 pm 23:56 Cloudy with Light Rain 57 13.8 55 12.7 93 93 W 3 6 29.93 1014 10 16.0934 0.1 2.54

Powered by AerisWeather